Regional Weather Roundup
Issued by NWS

Home | Current Version | Previous Version | Graphics & Text | Print | Product List | Glossary On
Versions: 1 2 3 4 5 6 7 8 9 10 11 12 13 14 15 16 17 18 19 20 21 22 23 24 25 26 27 28 29 30 31 32 33 34 35 36 37 38 39 40 41 42 43 44 45 46 47 48 49 50
045
ASUS45 KBOI 201610
RWRID

IDAHO REGIONAL WEATHER ROUNDUP
NATIONAL WEATHER SERVICE BOISE ID
900 AM MST FRI JAN 20 2017

NOTE: "FAIR" INDICATES FEW OR NO CLOUDS BELOW 12000 FEET
WITH NO SIGNIFICANT WEATHER AND/OR OBSTRUCTIONS TO VISIBILITY

IDZ012-014-201700-
SOUTHWEST IDAHO


CITY           SKY/WX    TMP DP  RH WIND       PRES   REMARKS
BOISE          CLOUDY    36  28  73 E15       29.41F WCI  27
CALDWELL       CLOUDY    34  30  85 SE16      29.43F WCI  24
MOUNTAIN HOME  MOCLDY    31  31 100 SE20      29.45F WCI  19
$$

IDZ016-017-201700-
SOUTHCENTRAL IDAHO


CITY           SKY/WX    TMP DP  RH WIND       PRES   REMARKS
BURLEY         CLEAR     28  23  81 E5        29.51F WCI  23
JEROME         PTCLDY    28  22  78 E14       29.49F WCI  17
TWIN FALLS     PTCLDY    31  21  66 E8        29.47F WCI  23
$$

IDZ019>023-201700-
SOUTHEAST IDAHO


CITY           SKY/WX    TMP DP  RH WIND       PRES   REMARKS
IDAHO FALLS    LGT SNOW  27  26  96 E3        29.57S FOG
POCATELLO      PTCLDY    23  20  88 SW6       29.56F WCI  16
REXBURG        LGT SNOW  28  28 100 CALM      29.56S FOG
$$

IDZ006-010-011-018-031-032-201700-
CENTRAL IDAHO MOUNTAINS


CITY           SKY/WX    TMP DP  RH WIND       PRES   REMARKS
MCCALL         FOG       18  17  96 CALM      29.36F VSB 3/4
STANLEY          N/A     13  11  92 CALM      29.43F
SALMON         CLOUDY    21  19  93 CALM      29.54S
CHALLIS        FOG       13  13 100 CALM      29.50F VSB 1/2
$$

IDZ002-004-006-007-026-201700-
NORTHERN IDAHO


CITY           SKY/WX    TMP DP  RH WIND       PRES   REMARKS
LEWISTON       CLEAR     32  29  88 SE6       29.38F WCI  26
LOWELL           N/A     33  31  92 N3        29.50F
COEUR D`ALENE  CLOUDY    33  33 100 N14       29.40F WCI  23
MULLAN PASS    FOG       25  21  85 SE8       29.35F VSB 3/4 WCI  16
$$




USA.gov is the U.S. government's official web portal to all federal, state and local government web resources and services.